Hourly Weather Malanje

Today, 15 July, Wednesday

Time Temperature Precipitation Wind Pressure Humidity
00:00 +16°C° 0 mm 1 mps 664 mmHg 40%
01:00 +15°C° 0 mm 1 mps 664 mmHg 61%
02:00 +14°C° 0 mm 1 mps 664 mmHg 60%
03:00 +14°C° 0 mm 1 mps 664 mmHg 59%
04:00 +14°C° 0 mm 1 mps 664 mmHg 58%
05:00 +14°C° 0 mm 2 mps 665 mmHg 50%
06:00 +14°C° 0 mm 2 mps 665 mmHg 43%
07:00 +14°C° 0 mm 3 mps 666 mmHg 35%
08:00 +19°C° 0 mm 4 mps 667 mmHg 29%
09:00 +23°C° 0 mm 4 mps 667 mmHg 22%
10:00 +27°C° 0 mm 5 mps 668 mmHg 15%
11:00 +29°C° 0 mm 4 mps 668 mmHg 15%
12:00 +32°C° 0 mm 4 mps 667 mmHg 14%
13:00 +33°C° 0 mm 3 mps 667 mmHg 14%
14:00 +33°C° 0 mm 3 mps 667 mmHg 14%
15:00 +33°C° 0 mm 3 mps 666 mmHg 14%
16:00 +33°C° 0 mm 3 mps 665 mmHg 14%
17:00 +29°C° 0 mm 2 mps 665 mmHg 17%
18:00 +26°C° 0 mm 1 mps 665 mmHg 21%
19:00 +23°C° 0 mm 1 mps 665 mmHg 24%
20:00 +22°C° 0 mm 1 mps 666 mmHg 26%
21:00 +21°C° 0 mm 1 mps 666 mmHg 27%
22:00 +20°C° 0 mm 1 mps 666 mmHg 28%
23:00 +19°C° 0 mm 1 mps 666 mmHg 29%

Tomorrow, 16 July, Thursday

Time Temperature Precipitation Wind Pressure Humidity
00:00 +18°C° 0 mm 1 mps 666 mmHg 29%
01:00 +16°C° 0 mm 1 mps 666 mmHg 30%
02:00 +15°C° 0 mm 2 mps 666 mmHg 30%
03:00 +15°C° 0 mm 2 mps 665 mmHg 30%
04:00 +14°C° 0 mm 2 mps 665 mmHg 30%
05:00 +14°C° 0 mm 3 mps 665 mmHg 28%
06:00 +14°C° 0 mm 3 mps 666 mmHg 26%
07:00 +15°C° 0 mm 4 mps 667 mmHg 24%
08:00 +19°C° 0 mm 4 mps 667 mmHg 21%
09:00 +22°C° 0 mm 5 mps 668 mmHg 17%
10:00 +27°C° 0 mm 6 mps 668 mmHg 14%
11:00 +29°C° 0 mm 5 mps 668 mmHg 13%
12:00 +30°C° 0 mm 5 mps 668 mmHg 13%
13:00 +33°C° 0 mm 4 mps 668 mmHg 12%
14:00 +33°C° 0 mm 4 mps 667 mmHg 12%
15:00 +33°C° 0 mm 3 mps 667 mmHg 12%
16:00 +33°C° 0 mm 3 mps 666 mmHg 13%
17:00 +29°C° 0 mm 2 mps 666 mmHg 16%
18:00 +26°C° 0 mm 2 mps 666 mmHg 19%
19:00 +23°C° 0 mm 1 mps 666 mmHg 23%
20:00 +22°C° 0 mm 1 mps 666 mmHg 24%
21:00 +21°C° 0 mm 1 mps 666 mmHg 26%
22:00 +20°C° 0 mm 1 mps 666 mmHg 27%
23:00 +19°C° 0 mm 1 mps 666 mmHg 29%

Day after tomorrow, 17 July, Friday

Time Temperature Precipitation Wind Pressure Humidity
00:00 +17°C° 0 mm 2 mps 666 mmHg 30%
01:00 +16°C° 0 mm 2 mps 666 mmHg 32%
02:00 +16°C° 0 mm 2 mps 666 mmHg 32%
03:00 +16°C° 0 mm 3 mps 666 mmHg 32%
04:00 +14°C° 0 mm 3 mps 666 mmHg 32%
05:00 +15°C° 0 mm 4 mps 666 mmHg 32%
06:00 +15°C° 0 mm 4 mps 667 mmHg 32%
07:00 +15°C° 0 mm 5 mps 667 mmHg 33%
08:00 +19°C° 0 mm 5 mps 667 mmHg 30%
09:00 +21°C° 0 mm 5 mps 668 mmHg 27%
10:00 +25°C° 0 mm 5 mps 668 mmHg 24%
11:00 +27°C° 0 mm 4 mps 668 mmHg 23%
12:00 +28°C° 0 mm 4 mps 668 mmHg 21%
13:00 +30°C° 0 mm 3 mps 667 mmHg 19%
14:00 +31°C° 0 mm 3 mps 667 mmHg 18%
15:00 +31°C° 0 mm 3 mps 666 mmHg 18%
16:00 +31°C° 0 mm 2 mps 665 mmHg 18%
17:00 +28°C° 0 mm 2 mps 665 mmHg 22%
18:00 +25°C° 0 mm 2 mps 665 mmHg 25%
19:00 +23°C° 0 mm 1 mps 665 mmHg 29%
20:00 +21°C° 0 mm 1 mps 665 mmHg 31%
21:00 +20°C° 0 mm 1 mps 665 mmHg 33%
22:00 +19°C° 0 mm 1 mps 666 mmHg 34%
23:00 +18°C° 0 mm 1 mps 666 mmHg 37%

18 July, Saturday

Time Temperature Precipitation Wind Pressure Humidity
00:00 +16°C° 0 mm 1 mps 666 mmHg 40%
01:00 +14°C° 0 mm 0 mps 665 mmHg 43%
02:00 +14°C° 0 mm 1 mps 665 mmHg 43%
03:00 +14°C° 0 mm 1 mps 665 mmHg 43%
04:00 +13°C° 0 mm 2 mps 665 mmHg 43%
05:00 +13°C° 0 mm 2 mps 666 mmHg 41%
06:00 +13°C° 0 mm 2 mps 666 mmHg 40%
07:00 +12°C° 0 mm 3 mps 667 mmHg 38%
08:00 +17°C° 0 mm 3 mps 667 mmHg 33%
09:00 +20°C° 0 mm 4 mps 668 mmHg 28%
10:00 +23°C° 0 mm 4 mps 668 mmHg 22%
11:00 +26°C° 0 mm 4 mps 668 mmHg 20%
12:00 +28°C° 0 mm 3 mps 667 mmHg 18%
13:00 +30°C° 0 mm 3 mps 667 mmHg 16%
14:00 +30°C° 0 mm 3 mps 666 mmHg 16%
15:00 +30°C° 0 mm 2 mps 666 mmHg 16%
16:00 +30°C° 0 mm 2 mps 665 mmHg 16%
17:00 +27°C° 0 mm 2 mps 665 mmHg 19%
18:00 +24°C° 0 mm 2 mps 665 mmHg 22%
19:00 +21°C° 0 mm 1 mps 665 mmHg 26%
20:00 +20°C° 0 mm 1 mps 665 mmHg 27%
21:00 +19°C° 0 mm 1 mps 665 mmHg 27%
22:00 +18°C° 0 mm 2 mps 666 mmHg 28%
23:00 +17°C° 0 mm 2 mps 666 mmHg 28%

19 July, Sunday

Time Temperature Precipitation Wind Pressure Humidity
00:00 +16°C° 0 mm 2 mps 665 mmHg 29%
01:00 +15°C° 0 mm 2 mps 665 mmHg 29%
02:00 +14°C° 0 mm 2 mps 665 mmHg 32%
03:00 +13°C° 0 mm 2 mps 665 mmHg 35%
04:00 +12°C° 0 mm 2 mps 665 mmHg 38%
05:00 +12°C° 0 mm 2 mps 665 mmHg 40%
06:00 +12°C° 0 mm 2 mps 666 mmHg 41%
07:00 +11°C° 0 mm 3 mps 666 mmHg 42%
08:00 +16°C° 0 mm 3 mps 667 mmHg 36%
09:00 +20°C° 0 mm 3 mps 667 mmHg 29%
10:00 +25°C° 0 mm 4 mps 668 mmHg 22%
11:00 +27°C° 0 mm 3 mps 668 mmHg 19%
12:00 +29°C° 0 mm 2 mps 667 mmHg 16%
13:00 +32°C° 0 mm 2 mps 667 mmHg 13%
14:00 +31°C° 0 mm 2 mps 666 mmHg 13%
15:00 +31°C° 0 mm 2 mps 666 mmHg 13%
16:00 +31°C° 0 mm 1 mps 665 mmHg 12%
17:00 +28°C° 0 mm 1 mps 665 mmHg 15%
18:00 +25°C° 0 mm 1 mps 665 mmHg 19%
19:00 +21°C° 0 mm 1 mps 664 mmHg 22%
20:00 +20°C° 0 mm 1 mps 665 mmHg 24%
21:00 +19°C° 0 mm 1 mps 665 mmHg 25%
22:00 +18°C° 0 mm 1 mps 665 mmHg 27%
23:00 +16°C° 0 mm 1 mps 665 mmHg 28%

20 July, Monday

Time Temperature Precipitation Wind Pressure Humidity
00:00 +16°C° 0 mm 1 mps 665 mmHg 30%
01:00 +15°C° 0 mm 1 mps 665 mmHg 31%
02:00 +14°C° 0 mm 1 mps 664 mmHg 33%
03:00 +13°C° 0 mm 1 mps 664 mmHg 35%
04:00 +12°C° 0 mm 1 mps 664 mmHg 37%
05:00 +12°C° 0 mm 1 mps 664 mmHg 37%
06:00 +12°C° 0 mm 1 mps 665 mmHg 38%
07:00 +12°C° 0 mm 1 mps 665 mmHg 38%
08:00 +16°C° 0 mm 2 mps 666 mmHg 32%
09:00 +21°C° 0 mm 3 mps 667 mmHg 26%
10:00 +26°C° 0 mm 3 mps 668 mmHg 20%
11:00 +28°C° 0 mm 3 mps 667 mmHg 17%
12:00 +31°C° 0 mm 2 mps 667 mmHg 15%
13:00 +33°C° 0 mm 1 mps 667 mmHg 12%
14:00 +33°C° 0 mm 1 mps 666 mmHg 12%
15:00 +33°C° 0 mm 1 mps 666 mmHg 12%
16:00 +33°C° 0 mm 1 mps 665 mmHg 12%
17:00 +29°C° 0 mm 1 mps 665 mmHg 15%
18:00 +24°C° 0 mm 0 mps 664 mmHg 18%
19:00 +20°C° 0 mm 0 mps 664 mmHg 22%
20:00 +21°C° 0 mm 1 mps 664 mmHg 23%
21:00 +20°C° 0 mm 1 mps 664 mmHg 25%
22:00 +19°C° 0 mm 1 mps 665 mmHg 27%
23:00 +18°C° 0 mm 1 mps 664 mmHg 33%
Show more